Regional Weather Roundup
Issued by NWS

Home | Current Version | Previous Version | Text Only | Print | Product List | Glossary Off
Versions: 1 2 3 4 5 6 7 8 9 10 11 12 13 14 15 16 17 18 19 20 21 22 23 24 25 26 27 28 29 30 31 32 33 34 35 36 37 38 39 40 41 42 43 44 45 46 47 48 49 50

000
ASUS45 KABQ 051510
RWRNM
WEATHER ROUNDUP FOR NEW MEXICO
NATIONAL WEATHER SERVICE ALBUQUERQUE NM
900 AM MDT TUE MAY 05 2015

NOTE: "FAIR" MEANS FEW OR NO CLOUDS BELOW 12,000 FEET AGL WITH NO
       SIGNIFICANT WEATHER OR OBSTRUCTIONS TO VISION.

      THIS PRODUCT IS RELEASED AS TWO VERSIONS.  ONE VERSION NEAR
      THE TOP OF THE HOUR CONTAINING PRELIMINARY DATA FROM ALBUQUERQUE
      AND OTHER STATIONS.  A FINAL VERSION WITH ADDITIONAL DATA IS
      ISSUED ABOUT 10 MINUTES AFTER THE HOUR.

NMZ501-503-504-510>518-051600-
NORTHWEST PLATEAU/NORTHCENTRAL MOUNTAINS

CITY           SKY/WX    TMP DP  RH WIND       PRES   REMARKS
FARMINGTON     LGT RAIN  49  47  93 N7        29.92S FOG
LOS ALAMOS     CLOUDY    46  45  99 W3        29.99F
SANTA FE       CLOUDY    50  42  74 S9        29.96F
TAOS           CLOUDY    43  34  70 CALM      29.99S
ANGEL FIRE     CLOUDY    33  33  99 W3        30.00S

$$
NMZ402-403-502-505>509-051600-
WESTCENTRAL MOUNTAINS/SOUTHWEST MOUNTAINS

CITY           SKY/WX    TMP DP  RH WIND       PRES   REMARKS
GALLUP         CLOUDY    46  42  86 SW9       29.99R
GRANTS         CLOUDY    46  41  85 CALM      30.01S
SILVER CITY      N/A     55  37  50 NW15      30.03S

$$
NMZ407-409-411-412-051600-
SOUTHERN DESERTS

CITY           SKY/WX    TMP DP  RH WIND       PRES   REMARKS
LORDSBURG        N/A     57  41  54 W6        30.00S
DEMING         SUNNY     60  41  49 W10       30.00R
LAS CRUCES     SUNNY     62  39  42 W12       30.00R
ALAMOGORDO     CLOUDY    57  55  94 S9        29.98R
T OR C         MOSUNNY   60  38  43 VRB5      29.96S

$$
NMZ519>523-051600-
CENTRAL VALLEYS/CENTRAL HIGHLANDS

CITY           SKY/WX    TMP DP  RH WIND       PRES   REMARKS
ALBUQUERQUE    PTSUNNY   54  45  71 S8        29.95F
DOUBLE EAGLE   PTSUNNY   50  43  76 S10       29.96S
MORIARTY ARPT  PTSUNNY   51  46  82 S6        29.98F
CLINES CORNERS PTSUNNY   50  42  74 W10       29.97S
BELEN          FAIR      54  46  75 SW9       29.97S
SOCORRO        PTSUNNY   53  47  78 CALM      29.96S

$$
NMZ524>526-539-540-051600-
SOUTHCENTRAL MOUNTAINS

CITY           SKY/WX    TMP DP  RH WIND       PRES   REMARKS
RUIDOSO        MOSUNNY   52  43  71 CALM      30.03S

$$
NMZ527>531-051600-
NORTHEAST HIGHLANDS/NORTHEAST PLAINS

CITY           SKY/WX    TMP DP  RH WIND       PRES   REMARKS
LAS VEGAS      CLOUDY    46  42  86 CALM      29.97F
RATON          CLOUDY    50  46  86 CALM      29.93R
CLAYTON        CLOUDY    54  51  90 E3        29.91F

$$
NMZ532>537-051600-
EASTCENTRAL PLAINS

CITY           SKY/WX    TMP DP  RH WIND       PRES   REMARKS
TUCUMCARI      CLOUDY    57  54  89 CALM      29.87R
CANNON AFB     PTSUNNY   57  52  82 W13       29.91R
CLOVIS AIRPORT CLOUDY    55  52  88 MISG        N/A

$$
NMZ028-029-538-051600-
SOUTHEAST PLAINS

CITY           SKY/WX    TMP DP  RH WIND       PRES   REMARKS
ROSWELL        SUNNY     63  55  75 SW8       29.91R
ARTESIA        SUNNY     63  57  82 SW8       29.93R
CARLSBAD       SUNNY     65  55  70 W6        29.91S
HOBBS          PTSUNNY   57  57 100 CALM      29.95R


$$


USA.gov is the U.S. government's official web portal to all federal, state and local government web resources and services.